This is the latest recevied weather packets stored in our database for station/object W4CPD. If no packets are shown the sender has not sent any weather packets the latest 10 day(s).
| Time | Temp. | Humidity | Pressure | Rain* | Wind** | Luminosity | Snow |
|---|---|---|---|---|---|---|---|
| 1777765217 | 20° C | 51% | 1015.3 hPa | 0.76 mm | - | - | - |
| 1777764628 | 21.11° C | 53% | 1015.1 hPa | 0.76 mm | - | - | - |
| 1777763415 | 21.67° C | 52% | 1015 hPa | 0.76 mm | - | - | - |
| 1777761618 | 21.67° C | 50% | 1014.9 hPa | 0.76 mm | - | - | - |
| 1777758918 | 22.22° C | 57% | 1014.5 hPa | 1.02 mm | - | - | - |
| 1777757442 | 22.22° C | 61% | 1014.2 hPa | 1.02 mm | - | - | - |
| 1777756215 | 21.11° C | 61% | 1014.1 hPa | 1.27 mm | - | - | - |
| 1777755628 | 21.11° C | 65% | 1014.2 hPa | 1.02 mm | - | - | - |
| 1777755014 | 21.11° C | 65% | 1014.2 hPa | 1.02 mm | - | - | - |
| 1777754729 | 21.11° C | 63% | 1014.3 hPa | 1.27 mm | - | - | - |
| 1777751413 | 22.22° C | 66% | 1014.5 hPa | 1.27 mm | - | - | - |
| 1777750515 | 21.11° C | 71% | 1014.8 hPa | 1.02 mm | - | - | - |
| 1777748714 | 20.56° C | 71% | 1015.1 hPa | 1.27 mm | - | - | - |
| 1777748428 | 20.56° C | 72% | 1015.1 hPa | 1.27 mm | - | - | - |
| 1777747814 | 21.11° C | 70% | 1015.2 hPa | 1.27 mm | - | - | - |
| 1777745733 | 21.11° C | 73% | 1015 hPa | 1.27 mm | - | - | - |
| 1777745116 | 20.56° C | 70% | 1015 hPa | 1.02 mm | - | - | - |
| 1777744515 | 20° C | 75% | 1015 hPa | 1.02 mm | - | - | - |
| 1777744213 | 20° C | 73% | 1015.2 hPa | 1.02 mm | - | - | - |
| 1777741240 | 18.33° C | 83% | 1015 hPa | 0.51 mm | - | - | - |
| 1777740614 | 17.78° C | 84% | 1015.2 hPa | 0.76 mm | - | - | - |
| 1777739114 | 17.22° C | 89% | 1015.2 hPa | 0.76 mm | - | - | - |
| 1777737013 | 16.11° C | 92% | 1015.5 hPa | 0.76 mm | - | - | - |
| 1777736728 | 15.56° C | 94% | 1015.3 hPa | 0.76 mm | - | - | - |
| 1777734929 | 13.89° C | 96% | 1015.1 hPa | 0.76 mm | - | - | - |
* Rain latest hour (hover to see other rain measurements)
** Current wind speed in m/s (hover to see current wind gust speed)